DW8909 Weather Reports


time (UTC)temp
F
wind
direction
speed
knots
gust
knots
rain 1hr
in
rain 24hr
in
rain mn
in
humidity
%
barometer
mb
20260507203132 54 25 1.7 5.2 0.00 0.00 0.00 81 1016.4
20260507201600 54 46 0.9 3.5 0.00 0.00 0.00 80 1016.3
20260507200100 54 46 0.9 4.3 0.00 0.00 0.00 80 1016.2
20260507194617 54 40 1.7 4.3 0.00 0.00 0.00 79 1016.1
20260507193058 54 38 1.7 5.2 0.00 0.00 0.00 79 1016.0
20260507191554 54 360 1.7 7.0 0.00 0.00 0.00 79 1015.8
20260507190100 54 33 2.6 7.8 0.00 0.00 0.00 79 1015.8
20260507184553 54 70 2.6 6.1 0.00 0.00 0.00 78 1015.8
20260507183052 54 14 1.7 6.1 0.00 0.00 0.00 78 1015.8
20260507181552 54 32 1.7 5.2 0.00 0.00 0.00 77 1015.8
20260507180051 54 15 1.7 6.1 0.00 0.00 0.00 76 1015.8
20260507174552 54 29 1.7 7.0 0.00 0.00 0.00 76 1015.9
20260507173123 54 9 0.9 5.2 0.00 0.00 0.00 76 1016.0
20260507171548 54 49 0.9 6.1 0.00 0.00 0.00 75 1015.9
20260507170050 54 74 2.6 6.1 0.00 0.00 0.00 74 1016.0
20260507164547 54 360 2.6 7.8 0.00 0.00 0.00 74 1016.1
20260507163046 54 57 2.6 7.8 0.00 0.00 0.00 73 1016.0
20260507161550 54 30 2.6 7.8 0.00 0.00 0.00 72 1016.1
20260507160051 55 17 3.5 7.0 0.00 0.00 0.00 72 1016.0
20260507154544 55 28 3.5 10.4 0.00 0.00 0.00 72 1015.9
20260507153044 55 44 2.6 7.0 0.00 0.00 0.00 72 1016.0
20260507151542 55 26 2.6 7.8 0.00 0.00 0.00 71 1015.8
20260507150043 56 269 1.7 9.6 0.00 0.00 0.00 70 1015.9
20260507144541 56 71 1.7 7.8 0.00 0.00 0.00 69 1015.8
20260507143054 57 40 2.6 8.7 0.00 0.00 0.00 68 1015.9
20260507141550 58 38 3.5 9.6 0.00 0.00 0.00 66 1015.9
20260507140038 59 51 4.3 11.3 0.00 0.00 0.00 64 1016.0
20260507134538 59 57 3.5 9.6 0.00 0.00 0.00 65 1016.0
20260507133104 59 60 3.5 9.6 0.00 0.00 0.00 66 1016.1
20260507131537 59 5 2.6 10.4 0.00 0.00 0.00 66 1016.1
20260507130038 59 355 2.6 7.8 0.00 0.00 0.00 66 1016.1
20260507124533 59 53 2.6 8.7 0.00 0.00 0.00 65 1016.1
20260507123039 59 43 2.6 9.6 0.00 0.00 0.00 63 1016.0
20260507121533 59 25 2.6 8.7 0.00 0.00 0.00 64 1016.0
20260507120035 59 22 3.5 9.6 0.00 0.00 0.00 64 1016.0
20260507114532 59 34 2.6 9.6 0.00 0.00 0.00 63 1016.0
20260507113034 59 111 2.6 7.8 0.00 0.00 0.00 64 1015.9
20260507111526 59 51 1.7 9.6 0.00 0.00 0.00 65 1016.0
20260507110022 58 355 2.6 8.7 0.00 0.00 0.00 65 1016.1
20260507104519 58 62 1.7 7.0 0.00 0.00 0.00 66 1016.1
20260507103014 58 44 2.6 6.1 0.00 0.00 0.00 65 1016.1
20260507101513 58 52 1.7 7.0 0.00 0.00 0.00 65 1016.1
20260507100009 58 23 2.6 7.0 0.00 0.00 0.00 66 1016.1
20260507094506 57 58 1.7 7.8 0.00 0.00 0.00 67 1016.0
20260507093001 57 246 1.7 5.2 0.00 0.00 0.00 67 1015.9
20260507091558 56 85 1.7 7.0 0.00 0.00 0.00 67 1015.7
20260507090053 56 333 0.9 5.2 0.00 0.00 0.00 68 1015.6
20260507084550 55 5 2.6 9.6 0.00 0.00 0.00 66 1015.6
20260507083046 55 40 0.9 7.8 0.00 0.00 0.00 70 1015.6
20260507081543 56 30 1.7 6.1 0.00 0.00 0.00 69 1015.5
20260507080039 54 50 1.7 5.2 0.00 0.00 0.00 69 1015.4
20260507074535 54 90 1.7 5.2 0.00 0.00 0.00 71 1015.3
20260507073031 53 74 1.7 7.8 0.00 0.00 0.00 75 1015.3
20260507071526 52 65 2.6 7.0 0.00 0.00 0.00 79 1015.3
20260507070035 51 38 2.6 6.1 0.00 0.00 0.00 81 1015.1
20260507064519 51 83 0.9 6.1 0.00 0.00 0.00 83 1015.1
20260507063017 50 355 0.9 4.3 0.00 0.00 0.00 84 1015.1
20260507061516 49 61 0.9 5.2 0.00 0.00 0.00 85 1015.0
20260507060019 49 73 1.7 7.0 0.00 0.00 0.00 87 1014.9
20260507054513 48 52 1.7 4.3 0.00 0.00 0.00 87 1014.8
20260507053011 48 63 0.9 2.6 0.00 0.00 0.00 88 1014.8
20260507051513 47 51 1.7 4.3 0.00 0.00 0.00 88 1014.6
20260507050015 47 38 0.9 4.3 0.00 0.00 0.00 88 1014.5
20260507044506 47 69 0.9 4.3 0.00 0.00 0.00 87 1014.3
20260507043002 47 59 1.7 5.2 0.00 0.00 0.00 87 1014.2
20260507041558 47 84 1.7 4.3 0.00 0.00 0.00 87 1014.1
20260507034602 47 69 1.7 5.2 0.00 0.00 0.00 86 1013.9
20260507033104 47 56 1.7 5.2 0.00 0.00 0.00 86 1013.7
20260507031558 48 78 1.7 6.1 0.00 0.00 0.00 85 1013.6
20260507030104 48 72 1.7 4.3 0.00 0.00 0.00 84 1013.5
20260507024605 48 44 1.7 5.2 0.00 0.00 0.00 83 1013.4
20260507023042 48 49 1.7 7.0 0.00 0.00 0.00 82 1013.4
20260507021550 48 42 2.6 7.0 0.00 0.00 0.00 82 1013.4
20260507020051 49 76 1.7 7.8 0.00 0.00 0.00 81 1013.2
20260507014548 49 53 1.7 5.2 0.00 0.00 0.00 80 1013.2
20260507013039 49 58 1.7 4.3 0.00 0.00 0.00 78 1013.2
20260507011535 50 65 1.7 5.2 0.00 0.00 0.00 77 1013.2
20260507010035 50 86 1.7 7.8 0.00 0.00 0.00 76 1013.1
20260507004526 51 38 3.5 6.1 0.00 0.00 0.00 76 1013.1
20260507003023 51 84 2.6 7.0 0.00 0.00 0.00 75 1013.1
20260507001526 52 49 2.6 7.8 0.00 0.00 0.00 74 1013.0
20260507000018 52 49 2.6 7.8 0.00 0.00 0.00 73 1012.9
20260506234516 52 70 2.6 7.0 0.00 0.00 0.00 72 1012.8
20260506233014 53 63 1.7 6.1 0.00 0.00 0.00 72 1012.7
20260506231512 53 51 2.6 7.8 0.00 0.00 0.00 73 1012.6
20260506230010 53 42 2.6 6.1 0.00 0.00 0.00 75 1012.5
20260506224507 53 45 2.6 7.0 0.00 0.00 0.00 77 1012.4
20260506223004 53 37 1.7 5.2 0.00 0.00 0.00 77 1012.4
20260506221504 53 59 2.6 7.8 0.00 0.00 0.00 77 1012.4
20260506220001 53 87 2.6 7.8 0.00 0.00 0.00 78 1012.3
20260506214600 53 40 2.6 7.8 0.00 0.00 0.00 78 1012.1
20260506213101 53 78 1.7 5.2 0.00 0.00 0.00 78 1012.1
20260506211557 53 75 1.7 9.6 0.00 0.00 0.00 78 1012.1
20260506210056 53 58 2.6 5.2 0.00 0.00 0.00 78 1012.0
20260506204554 53 34 1.7 7.8 0.00 0.00 0.00 78 1011.9